DateTimeUTC,F1_A11,F1_S11,BsB_S11,BsG_S11,BsR_S11,BbsB_S11,BbsG_S11,BbsR_S11,BaB_A11,BaG_A11,BaR_A11,Tu_S11,T_S11,Uu_S11,U_S11,P_S11,T1_A11
2021-03-26T02:00:00Z,00000200,21000000,,,,,,,0000.00,0000.27,-000.09,16.4,24.0,,00.0,0630.8,30.9
2021-03-26T02:01:00Z,00000200,21000000,,,,,,,0000.06,0000.04,0000.16,16.4,24.0,,00.0,0630.8,30.9
2021-03-26T02:02:00Z,00000200,21000000,,,,,,,-000.07,-000.04,-000.04,16.4,24.0,,00.0,0630.8,30.9
2021-03-26T02:03:00Z,00000200,61000000,,,,,,,0002.13,0001.71,0001.23,16.4,24.0,,00.0,0630.8,30.9
2021-03-26T02:04:00Z,00000200,41000000,0004.42,0003.24,0001.74,0000.70,0000.31,0000.35,0002.68,0002.48,0002.10,16.6,23.8,,00.0,0631.7,30.9
2021-03-26T02:05:00Z,00000200,01000000,0004.52,0003.17,0001.67,0000.75,0000.66,0000.47,0003.00,0002.78,0002.10,16.6,23.8,,00.0,0631.7,30.9
2021-03-26T02:06:00Z,00000200,01000000,0004.68,0003.19,0001.72,0000.57,0000.48,0000.34,0002.97,0002.61,0001.87,16.5,23.7,,00.0,0631.7,30.8
2021-03-26T02:07:00Z,00000200,01000000,0004.97,0003.19,0001.91,0000.46,0000.52,0000.55,0002.61,0002.28,0001.81,16.3,23.6,,00.0,0631.7,30.8
2021-03-26T02:08:00Z,00000200,01000000,0004.85,0003.04,0001.73,0000.96,0000.54,0000.33,0002.98,0003.14,0002.25,16.3,23.6,,00.0,0631.8,30.8
2021-03-26T02:09:00Z,00000200,01000000,0004.65,0003.23,0001.99,0000.81,0000.47,0000.39,0003.32,0002.64,0001.97,16.3,23.5,,00.0,0631.7,30.8
2021-03-26T02:10:00Z,00000200,01000000,0004.14,0003.08,0001.81,0001.22,0000.63,0000.32,0003.12,0003.45,0002.72,16.3,23.5,,00.0,0631.7,30.8
2021-03-26T02:11:00Z,00000200,01000000,0004.90,0003.31,0001.66,0001.03,0000.58,0000.41,0003.10,0002.46,0002.14,16.4,23.5,,00.0,0631.7,30.8
2021-03-26T02:12:00Z,00000200,01000000,0004.53,0003.30,0001.80,0000.83,0000.39,0000.55,0003.33,0002.76,0002.49,16.4,23.5,,00.0,0631.7,30.9
2021-03-26T02:13:00Z,00000200,01000000,0004.63,0003.13,0001.74,0000.59,0000.44,0000.27,0002.76,0002.89,0002.04,16.4,23.5,,00.0,0631.7,30.9
2021-03-26T02:14:00Z,00000200,01000000,0004.53,0002.85,0001.59,0000.32,0000.54,0000.31,0002.50,0002.34,0001.92,16.5,23.6,,00.0,0631.7,30.9
2021-03-26T02:15:00Z,00000200,01000000,0005.01,0003.25,0001.95,0000.91,0000.45,0000.73,0003.09,0002.63,0002.10,16.5,23.6,,00.0,0631.7,30.9
2021-03-26T02:16:00Z,00000200,01000000,0004.44,0002.95,0001.90,0000.62,0000.53,0000.40,0002.82,0002.68,0002.18,16.5,23.6,,00.0,0631.7,30.9
2021-03-26T02:17:00Z,00000200,01000000,0004.95,0002.95,0001.64,0000.46,0000.55,0000.46,0002.86,0002.73,0001.65,16.6,23.6,,00.0,0631.7,30.9
2021-03-26T02:18:00Z,00000200,01000000,0004.71,0003.10,0001.91,0001.04,0000.68,0000.49,0002.57,0002.39,0001.95,16.6,23.6,,00.0,0631.7,30.9
2021-03-26T02:19:00Z,00000200,01000000,0004.73,0002.86,0001.84,0000.50,0000.42,0000.32,0002.95,0003.16,0002.29,16.6,23.6,,00.0,0631.7,30.9
2021-03-26T02:20:00Z,00000200,01000000,0004.82,0002.94,0001.91,0000.90,0000.53,0000.44,0003.01,0002.80,0002.14,16.7,23.6,,00.0,0631.7,30.9
2021-03-26T02:21:00Z,00000200,01000000,0004.42,0002.94,0001.95,0000.41,0000.28,0000.39,0003.16,0002.72,0002.55,16.7,23.7,,00.0,0631.7,30.9
2021-03-26T02:22:00Z,00000200,01000000,0004.61,0003.12,0001.56,0000.93,0000.57,0000.38,0002.90,0002.54,0002.02,16.7,23.7,,00.0,0631.6,30.9
2021-03-26T02:23:00Z,00000200,01000000,0004.99,0003.12,0002.04,0000.97,0000.39,0000.43,0003.05,0002.53,0001.85,16.8,23.7,,00.0,0631.6,30.9
2021-03-26T02:24:00Z,00000200,01000000,0004.08,0003.23,0001.77,0000.52,0000.52,0000.31,0002.53,0002.82,0001.93,16.8,23.7,,00.0,0631.7,30.9
2021-03-26T02:25:00Z,00000200,01000000,0004.85,0003.04,0001.82,0001.08,0000.45,0000.60,0002.40,0001.81,0001.65,16.8,23.7,,00.0,0631.7,30.9
2021-03-26T02:26:00Z,00000200,01000000,0004.38,0003.12,0001.77,0000.89,0000.75,0000.46,0001.93,0001.88,0001.47,16.9,23.7,,00.0,0631.7,30.9
2021-03-26T02:27:00Z,00000200,01000000,0004.89,0003.15,0001.83,0000.86,0000.23,0000.50,0002.48,0002.48,0001.74,16.9,23.7,,00.0,0631.7,30.9
2021-03-26T02:28:00Z,00000200,01000000,0004.42,0003.18,0001.75,0000.70,0000.52,0000.43,0002.78,0001.93,0001.90,16.9,23.8,,00.0,0631.7,30.9
2021-03-26T02:29:00Z,00000200,01000000,0004.66,0003.14,0001.75,0000.95,0000.43,0000.20,0002.56,0002.48,0001.78,16.9,23.8,,00.0,0631.7,30.9
2021-03-26T02:30:00Z,00000200,01000000,0004.59,0002.94,0001.80,0001.08,0000.44,0000.42,0002.69,0002.81,0001.78,16.9,23.8,,00.0,0631.7,30.9
2021-03-26T02:31:00Z,00000200,01000000,0004.82,0003.31,0001.91,0000.68,0000.54,0000.19,0002.76,0002.58,0002.00,16.9,23.8,,00.0,0631.7,30.9
2021-03-26T02:32:00Z,00000200,01000000,0004.41,0003.04,0001.72,0000.57,0000.61,0000.13,0002.59,0002.12,0001.60,17.0,23.8,,00.0,0631.7,30.9
2021-03-26T02:33:00Z,00000200,01000000,0004.07,0002.99,0002.03,0000.69,0000.58,0000.49,0002.58,0002.29,0002.17,17.0,23.8,,00.0,0631.7,30.9
2021-03-26T02:34:00Z,00000200,01000000,0004.83,0002.95,0001.76,0001.06,0000.48,0000.40,0002.61,0002.31,0001.90,17.0,23.8,,00.0,0631.7,30.9
2021-03-26T02:35:00Z,00000200,01000000,0004.32,0003.19,0001.86,0001.01,0000.48,0000.28,0002.26,0002.31,0001.73,17.0,23.8,,00.0,0631.7,30.9
2021-03-26T02:36:00Z,00000200,01000000,0004.28,0003.12,0001.80,0000.93,0000.52,0000.62,0002.49,0002.28,0001.56,16.9,23.8,,00.0,0631.8,30.9
2021-03-26T02:37:00Z,00000200,01000000,0004.30,0003.10,0001.58,0000.83,0000.56,0000.28,0003.05,0002.80,0002.17,16.8,23.7,,00.0,0631.8,30.9
2021-03-26T02:38:00Z,00000200,01000000,0004.13,0003.04,0001.67,0000.96,0000.37,0000.51,0002.28,0002.05,0001.70,16.7,23.7,,00.0,0631.8,30.8
2021-03-26T02:39:00Z,00000200,01000000,0004.61,0003.07,0001.88,0000.50,0000.46,0000.32,0002.27,0002.45,0001.57,16.7,23.6,,00.0,0631.8,30.9
2021-03-26T02:40:00Z,00000200,01000000,0004.59,0003.11,0001.87,0001.05,0000.63,0000.43,0002.84,0002.30,0002.16,16.7,23.7,,00.0,0631.8,30.9
2021-03-26T02:41:00Z,00000200,01000000,0004.57,0002.90,0001.73,0000.68,0000.60,0000.52,0002.53,0002.36,0001.81,16.7,23.7,,00.0,0631.8,30.9
2021-03-26T02:42:00Z,00000200,01000000,0004.44,0002.85,0001.88,0000.38,0000.29,0000.55,0002.66,0002.65,0001.72,16.7,23.7,,00.0,0631.8,30.9
2021-03-26T02:43:00Z,00000200,01000000,0004.11,0002.94,0001.92,0001.39,0000.58,0000.46,0002.46,0002.16,0001.82,16.8,23.7,,00.0,0631.8,30.9
2021-03-26T02:44:00Z,00000200,01000000,0004.57,0002.71,0001.56,0000.69,0000.50,0000.41,0002.85,0002.83,0001.85,16.8,23.7,,00.0,0631.8,30.9
2021-03-26T02:45:00Z,00000200,01000000,0003.86,0003.22,0001.77,0000.98,0000.45,0000.21,0002.66,0002.14,0001.89,16.8,23.7,,00.0,0631.8,30.9
2021-03-26T02:46:00Z,00000200,01000000,0004.87,0002.42,0001.59,0000.71,0000.52,0000.34,0002.76,0002.46,0001.82,16.8,23.7,,00.0,0631.8,30.9
2021-03-26T02:47:00Z,00000200,01000000,0003.94,0002.86,0001.70,0000.85,0000.48,0000.28,0002.54,0002.25,0001.85,16.8,23.7,,00.0,0631.9,30.9
2021-03-26T02:48:00Z,00000200,01000000,0004.09,0002.81,0001.70,0000.81,0000.57,0000.41,0002.50,0002.15,0001.81,16.8,23.8,,00.0,0631.8,30.9
2021-03-26T02:49:00Z,00000200,01000000,0004.68,0002.85,0001.79,0000.29,0000.47,0000.38,0002.73,0002.48,0002.17,16.9,23.8,,00.0,0631.9,30.9
2021-03-26T02:50:00Z,00000200,01000000,0004.37,0002.68,0001.47,0000.68,0000.47,0000.27,0002.42,0002.48,0001.60,16.8,23.8,,00.0,0631.9,30.9
2021-03-26T02:51:00Z,00000200,01000000,0004.01,0002.75,0001.44,0000.54,0000.64,0000.35,0002.30,0002.23,0001.58,16.8,23.7,,00.0,0631.9,30.9
2021-03-26T02:52:00Z,00000200,01000000,0004.68,0002.85,0001.65,0000.73,0000.59,0000.50,0002.70,0002.14,0001.97,16.7,23.7,,00.0,0631.9,30.9
2021-03-26T02:53:00Z,00000200,01000000,0004.17,0002.92,0001.43,0000.75,0000.66,0000.48,0002.93,0002.75,0001.70,16.6,23.7,,00.0,0631.9,30.8
2021-03-26T02:54:00Z,00000200,01000000,0004.14,0003.15,0001.93,0000.03,0000.62,0000.31,0002.48,0002.52,0001.94,16.6,23.6,,00.0,0631.9,30.9
2021-03-26T02:55:00Z,00000200,01000000,0004.72,0002.71,0001.94,0000.60,0000.54,0000.35,0002.85,0002.77,0001.88,16.6,23.6,,00.0,0631.9,30.9
2021-03-26T02:56:00Z,00000200,01000000,0004.39,0002.93,0001.77,0000.84,0000.46,0000.39,0002.52,0002.20,0001.85,16.6,23.6,,00.0,0631.9,30.9
2021-03-26T02:57:00Z,00000200,41000000,,,,,,,0004.22,0004.04,0003.46,16.7,23.7,,00.0,0631.9,30.9
2021-03-26T02:58:00Z,00000200,61000000,,,,,,,-000.07,-000.18,0000.14,16.3,23.8,,00.0,0630.9,30.9
2021-03-26T02:59:00Z,00000200,21000000,,,,,,,-000.77,-000.30,-000.77,16.3,24.0,,00.0,0630.9,30.9
